Location: Laterina
(43.5167°N, 11.7167°E)
Time: 16:15:53
(UTC+00:00)

Cosmos 2195 Rocket - Pass Details

Date: 24 September 2020
Orbit: 948 x 994 km, 82.9° (Epoch: 25 October)

Event Time Altitude Azimuth Distance (km) Brightness Sun altitude
Rises 18:47:06 0° 353° (N) 3,686 7.9 -18.9°
Reaches altitude 10° 18:49:39 10° 356° (N) 2,727 7.1 -19.3°
Maximum altitude 18:55:54 72° 81° (E) 1,013 4.4 -20.4°
Enters shadow 19:00:08 21° 162° (SSE) 1,996 5.8 -21.1°
